Volver al catálogo

FENGYUN 1C DEB

ActivoPO
NORAD 32099·DEBRIS·🇨🇳 China

Lanzado May 10, 1999 desde Taiyuan Satellite Launch Center

Loading…

Próximos Pases (próximas 24 horas)

TLE

ObsoletoSource: Space-Track

Época: Aug 23, 2026, 15:46 UTC

1 32099U 99025CQR 26235.65703752  .00001341  00000-0  66253-3 0  9995
2 32099  98.2992 186.4978 0339283 286.2186 253.7333 13.93004008682211

Sigue FENGYUN 1C DEB en tiempo real con AllMySat

Download on the App Store